FW8212 Weather Reports


time (UTC)temp
F
wind
direction
speed
knots
gust
knots
rain 1hr
in
rain 24hr
in
rain mn
in
humidity
%
barometer
mb
20260906223040 77 62 7.0 11.3 0.00 0.00 0.00 53 1013.1
20260906221537 77 40 3.5 10.4 0.00 0.00 0.00 52 1012.9
20260906220037 78 72 6.1 12.2 0.00 0.00 0.00 52 1013.0
20260906214539 78 34 3.5 11.3 0.00 0.00 0.00 51 1013.2
20260906213040 77 65 1.7 7.8 0.00 0.00 0.00 51 1013.4
20260906211538 78 105 7.0 13.0 0.00 0.00 0.00 50 1013.5
20260906204543 77 88 5.2 12.2 0.00 0.00 0.00 50 1013.9
20260906200038 75 64 6.1 11.3 0.00 0.00 0.00 59 1014.3
20260906190038 70 34 1.7 7.8 0.00 0.00 0.00 70 1015.6
20260906094538 59 360 7.0 9.6 0.00 0.00 0.00 73 1016.9
20260906073040 62 348 7.0 10.4 0.00 0.00 0.00 62 1017.6
20260906071536 63 11 7.0 11.3 0.00 0.00 0.00 60 1017.6
20260906064537 63 5 6.1 9.6 0.00 0.00 0.00 55 1017.8
20260906054542 66 5 4.3 8.7 0.00 0.00 0.00 50 1017.7
20260906050050 66 360 5.2 7.8 0.00 0.00 0.00 48 1017.7
20260906044537 66 360 4.3 7.0 0.00 0.00 0.00 46 1017.7
20260906041539 68 5 5.2 9.6 0.00 0.00 0.00 44 1017.8
20260906040040 68 11 6.1 9.6 0.00 0.00 0.00 44 1017.8
20260906031540 69 9 7.0 11.3 0.00 0.00 0.00 40 1017.9
20260906030039 70 13 5.2 9.6 0.00 0.00 0.00 40 1017.7
20260906021539 71 44 5.2 9.6 0.00 0.00 0.00 39 1017.4
20260906020051 71 44 5.2 8.7 0.00 0.00 0.00 39 1017.2
20260906013048 73 58 8.7 12.2 0.00 0.00 0.00 35 1017.2
20260906003038 77 42 9.6 16.5 0.00 0.00 0.00 29 1016.8